Location: Callao
(39.8979°N, 113.7141°W)
Time: 14:06:58
(UTC+00:00)

X-37B - Pass Details

Date: 12 March 2021
Orbit: 380 x 394 km, 45.0° (Epoch: 07 April)

Event Time Altitude Azimuth Distance (km) Brightness Sun altitude
Rises 02:54:13 0° 235° (SW) 2,260 5.2 -15.4°
Reaches altitude 10° 02:56:17 10° 231° (SW) 1,411 4.0 -15.8°
Maximum altitude 02:59:25 58° 152° (SSE) 459 0.7 -16.4°
Enters shadow 02:59:59 48° 106° (ESE) 518 0.7 -16.5°
